Simultaneous Nadir Overpasses (SNOs) Predictions

Prediction of SNOs between LANDSAT-8 and METOP-B Satellite Orbit:

Table of predicted SNOs for the next 14.0 days since TLE Epoch: 5/14/2016
Index Date (LANDSAT-8) Time (LANDSAT-8) Lat,Lon (LANDSAT-8) SZA (LANDSAT-8 ) Date (METOP-B) Time (METOP-B) Lat,Lon (METOP-B) SZA (METOP-B ) Distance(km) Time Diff (sec)
1 05/15/2016 20:29:42 81.08, -88.16 64.15 05/15/2016 20:28:46 81.07, -88.29 64.10 2.22 56
2 05/15/2016 21:19:08 -81.10, 79.79 115.82 05/15/2016 21:19:25 -81.10, 79.87 115.80 1.36 17
3 05/18/2016 16:03:59 81.07, -21.84 63.50 05/18/2016 16:03:10 81.06, -22.00 63.46 2.87 49
4 05/18/2016 16:53:25 -81.09, 146.15 116.45 05/18/2016 16:53:49 -81.09, 146.16 116.44 0.38 24
5 05/21/2016 11:38:15 81.08, 44.81 62.95 05/21/2016 11:37:33 81.07, 44.64 62.91 3.18 42
6
